When you browse on this site, cookies collect data to enhance your experience and personalize the content and advertising you see.
Visit our Privacy Policy to learn more. By continuing to use the site, you agree to this use of cookies and data.
  • In United Kingdom
  • List of Countries
  • For 7 days
  • Water Temperature
  • Weather Map
  • Weather Widgets
  • user-avatar
    Login

    Hourly Weather Huddersfield

    Today, 27 February, Thursday

    Time Temperature Precipitation Wind Pressure Humidity
    00:00 0°C° 0 mm 4 mps 734 mmHg 83%
    01:00 0°C° 0.3 mm 4 mps 733 mmHg 86%
    02:00 0°C° 0.3 mm 4 mps 733 mmHg 89%
    03:00 +1°C° 0.3 mm 3 mps 732 mmHg 93%
    04:00 0°C° 0.8 mm 3 mps 732 mmHg 94%
    05:00 +1°C° 0.8 mm 2 mps 732 mmHg 95%
    06:00 +1°C° 0.8 mm 2 mps 731 mmHg 96%
    07:00 +1°C° 0.3 mm 2 mps 732 mmHg 94%
    08:00 +1°C° 0.3 mm 3 mps 732 mmHg 91%
    09:00 0°C° 0.3 mm 4 mps 732 mmHg 89%
    10:00 +1°C° 0 mm 5 mps 733 mmHg 81%
    11:00 +1°C° 0 mm 5 mps 733 mmHg 74%
    12:00 +2°C° 0 mm 6 mps 734 mmHg 66%
    13:00 +2°C° 0 mm 6 mps 734 mmHg 65%
    14:00 +2°C° 0 mm 7 mps 735 mmHg 64%
    15:00 +2°C° 0 mm 7 mps 736 mmHg 63%
    16:00 +2°C° 0 mm 7 mps 736 mmHg 66%
    17:00 +1°C° 0 mm 6 mps 737 mmHg 68%
    18:00 -1°C° 0 mm 6 mps 738 mmHg 71%
    19:00 0°C° 0 mm 5 mps 739 mmHg 72%
    20:00 0°C° 0 mm 5 mps 739 mmHg 74%
    21:00 0°C° 0 mm 4 mps 740 mmHg 76%
    22:00 0°C° 0 mm 4 mps 740 mmHg 78%
    23:00 0°C° 0 mm 4 mps 741 mmHg 79%

    Tomorrow, 28 February, Friday

    Time Temperature Precipitation Wind Pressure Humidity
    00:00 +1°C° 0 mm 3 mps 741 mmHg 80%
    01:00 +1°C° 0 mm 3 mps 741 mmHg 80%
    02:00 +1°C° 0 mm 3 mps 740 mmHg 79%
    03:00 0°C° 0 mm 3 mps 740 mmHg 79%
    04:00 +1°C° 0 mm 3 mps 740 mmHg 78%
    05:00 +1°C° 0 mm 3 mps 739 mmHg 78%
    06:00 +1°C° 0 mm 3 mps 739 mmHg 78%
    07:00 0°C° 0.1 mm 4 mps 738 mmHg 80%
    08:00 0°C° 0.1 mm 5 mps 737 mmHg 82%
    09:00 0°C° 0.1 mm 5 mps 737 mmHg 84%
    10:00 -1°C° 1.1 mm 6 mps 735 mmHg 88%
    11:00 -1°C° 1.1 mm 7 mps 734 mmHg 92%
    12:00 -1°C° 1.1 mm 7 mps 732 mmHg 95%
    13:00 0°C° 1.1 mm 7 mps 731 mmHg 95%
    14:00 +2°C° 1.1 mm 6 mps 729 mmHg 95%
    15:00 +3°C° 1.1 mm 5 mps 728 mmHg 95%
    16:00 +5°C° 1.1 mm 5 mps 727 mmHg 95%
    17:00 +5°C° 1.1 mm 6 mps 726 mmHg 95%
    18:00 +7°C° 1.1 mm 6 mps 726 mmHg 95%
    19:00 +7°C° 0.6 mm 6 mps 725 mmHg 94%
    20:00 +7°C° 0.6 mm 6 mps 725 mmHg 94%
    21:00 +7°C° 0.6 mm 6 mps 724 mmHg 93%
    22:00 +7°C° 0.6 mm 6 mps 723 mmHg 93%
    23:00 +7°C° 0.6 mm 6 mps 722 mmHg 92%

    Day after tomorrow, 29 February, Saturday

    Time Temperature Precipitation Wind Pressure Humidity
    00:00 +8°C° 0.6 mm 7 mps 721 mmHg 91%
    01:00 +8°C° 0.2 mm 7 mps 720 mmHg 90%
    02:00 +7°C° 0.2 mm 8 mps 718 mmHg 88%
    03:00 +7°C° 0.2 mm 9 mps 717 mmHg 87%
    04:00 +7°C° 0.6 mm 8 mps 716 mmHg 87%
    05:00 +7°C° 0.6 mm 8 mps 715 mmHg 87%
    06:00 +6°C° 0.6 mm 8 mps 714 mmHg 87%
    07:00 +5°C° 0.3 mm 8 mps 714 mmHg 82%
    08:00 +2°C° 0.3 mm 8 mps 714 mmHg 77%
    09:00 +1°C° 0.3 mm 9 mps 714 mmHg 72%
    10:00 +1°C° 0 mm 9 mps 715 mmHg 67%
    11:00 +1°C° 0 mm 9 mps 715 mmHg 62%
    12:00 +1°C° 0 mm 9 mps 715 mmHg 56%
    13:00 +1°C° 0.2 mm 10 mps 714 mmHg 57%
    14:00 +1°C° 0.2 mm 10 mps 714 mmHg 57%
    15:00 +1°C° 0.2 mm 10 mps 713 mmHg 57%
    16:00 -1°C° 0.4 mm 11 mps 712 mmHg 67%
    17:00 -1°C° 0.4 mm 11 mps 710 mmHg 76%
    18:00 -2°C° 0.4 mm 12 mps 709 mmHg 86%
    19:00 -1°C° 1.5 mm 12 mps 708 mmHg 85%
    20:00 -1°C° 1.5 mm 13 mps 708 mmHg 85%
    21:00 0°C° 1.5 mm 13 mps 707 mmHg 85%
    22:00 0°C° 1.1 mm 13 mps 707 mmHg 86%
    23:00 0°C° 1.1 mm 12 mps 707 mmHg 86%

    1 March, Sunday

    Time Temperature Precipitation Wind Pressure Humidity
    00:00 0°C° 1.1 mm 12 mps 707 mmHg 87%
    01:00 +1°C° 1.7 mm 11 mps 708 mmHg 87%
    02:00 +1°C° 1.7 mm 11 mps 708 mmHg 86%
    03:00 +1°C° 1.7 mm 11 mps 709 mmHg 85%
    04:00 0°C° 1.8 mm 12 mps 709 mmHg 85%
    05:00 0°C° 1.8 mm 13 mps 710 mmHg 85%
    06:00 0°C° 1.8 mm 14 mps 711 mmHg 85%
    07:00 -1°C° 2.1 mm 13 mps 711 mmHg 87%
    08:00 -1°C° 2.1 mm 13 mps 712 mmHg 89%
    09:00 -1°C° 2.1 mm 13 mps 713 mmHg 92%
    10:00 -1°C° 1.4 mm 13 mps 714 mmHg 87%
    11:00 -1°C° 1.4 mm 13 mps 715 mmHg 83%
    12:00 0°C° 1.4 mm 13 mps 716 mmHg 78%
    13:00 0°C° 0.2 mm 12 mps 717 mmHg 78%
    14:00 0°C° 0.2 mm 12 mps 717 mmHg 77%
    15:00 +1°C° 0.2 mm 11 mps 718 mmHg 77%
    16:00 +1°C° 0.2 mm 11 mps 718 mmHg 74%
    17:00 0°C° 0.2 mm 12 mps 718 mmHg 70%
    18:00 -1°C° 0.2 mm 12 mps 718 mmHg 67%
    19:00 -1°C° 0.7 mm 11 mps 719 mmHg 74%
    20:00 -1°C° 0.7 mm 11 mps 720 mmHg 80%
    21:00 -2°C° 0.7 mm 10 mps 721 mmHg 87%
    22:00 -2°C° 0.4 mm 10 mps 721 mmHg 86%
    23:00 -1°C° 0.4 mm 9 mps 722 mmHg 86%

    2 March, Monday

    Time Temperature Precipitation Wind Pressure Humidity
    00:00 -1°C° 0.4 mm 9 mps 723 mmHg 86%
    01:00 -1°C° 0.1 mm 8 mps 723 mmHg 86%
    02:00 -1°C° 0.1 mm 8 mps 723 mmHg 87%
    03:00 -1°C° 0.1 mm 7 mps 724 mmHg 88%
    04:00 -1°C° 0.1 mm 7 mps 724 mmHg 88%
    05:00 -1°C° 0.1 mm 7 mps 724 mmHg 89%
    06:00 -2°C° 0.1 mm 6 mps 725 mmHg 90%
    07:00 -1°C° 0.1 mm 6 mps 725 mmHg 89%
    08:00 -1°C° 0.1 mm 6 mps 726 mmHg 89%
    09:00 -1°C° 0.1 mm 6 mps 726 mmHg 89%
    10:00 +1°C° 0.2 mm 6 mps 727 mmHg 89%
    11:00 +1°C° 0.2 mm 6 mps 727 mmHg 89%
    12:00 +1°C° 0.2 mm 6 mps 728 mmHg 89%
    13:00 +1°C° 0.2 mm 6 mps 728 mmHg 89%
    14:00 +1°C° 0.2 mm 6 mps 729 mmHg 88%
    15:00 +1°C° 0.2 mm 6 mps 729 mmHg 88%
    16:00 +1°C° 0.1 mm 6 mps 730 mmHg 87%
    17:00 +1°C° 0.1 mm 5 mps 730 mmHg 85%
    18:00 +1°C° 0.1 mm 5 mps 731 mmHg 84%
    19:00 0°C° 0 mm 5 mps 732 mmHg 84%
    20:00 0°C° 0 mm 4 mps 732 mmHg 84%
    21:00 0°C° 0 mm 4 mps 733 mmHg 85%
    22:00 -1°C° 0 mm 4 mps 734 mmHg 85%
    23:00 0°C° 0 mm 3 mps 734 mmHg 85%

    3 March, Tuesday

    Time Temperature Precipitation Wind Pressure Humidity
    00:00 0°C° 0 mm 3 mps 735 mmHg 85%
    01:00 0°C° 0 mm 3 mps 735 mmHg 85%
    02:00 0°C° 0 mm 3 mps 735 mmHg 85%
    03:00 -1°C° 0 mm 3 mps 735 mmHg 86%
    04:00 -1°C° 0 mm 3 mps 735 mmHg 86%
    05:00 -1°C° 0 mm 3 mps 735 mmHg 86%
    06:00 -1°C° 0 mm 3 mps 735 mmHg 86%
    07:00 0°C° 0 mm 3 mps 736 mmHg 84%
    08:00 0°C° 0 mm 3 mps 736 mmHg 82%
    09:00 0°C° 0 mm 4 mps 736 mmHg 80%
    10:00 +1°C° 0 mm 4 mps 736 mmHg 76%
    11:00 +3°C° 0 mm 4 mps 736 mmHg 72%
    12:00 +3°C° 0 mm 4 mps 736 mmHg 68%
    13:00 +4°C° 0 mm 3 mps 735 mmHg 66%
    14:00 +4°C° 0 mm 3 mps 735 mmHg 64%
    15:00 +5°C° 0 mm 2 mps 735 mmHg 62%
    16:00 +4°C° 0 mm 2 mps 735 mmHg 66%
    17:00 +4°C° 0 mm 1 mps 735 mmHg 71%
    18:00 +3°C° 0 mm 1 mps 735 mmHg 75%
    19:00 +3°C° 0 mm 1 mps 735 mmHg 76%
    20:00 +2°C° 0 mm 1 mps 735 mmHg 78%
    21:00 +2°C° 0 mm 1 mps 736 mmHg 79%
    22:00 +2°C° 0 mm 1 mps 736 mmHg 81%
    23:00 +2°C° 0 mm 1 mps 736 mmHg 82%
    Show more